Flag for Germany Past Weather in Sundern (Sauerland), North Rhine-Westphalia, Germany — Yesterday and Last 2 Weeks

Now
73 °F

Clear.


Feels Like: 77 °F
Forecast: 67 / 88 °F
Wind: 3 mph from North

Location: Paderborn / Lippstadt

Current Time: Aug 25, 2016 at 5:01:00 AM

Latest Report: Aug 25, 2016 at 4:20 AM


Visibility: 10 mi

Pressure: 30.12 "Hg

Humidity: 53%

Dew Point: 55 °F

Location of Sundern (Sauerland)Location

Past Weather in Sundern (Sauerland) — Graph

°F

Sundern (Sauerland) Temperature Yesterday

Maximum temperature yesterday: 88 °F (at 3:20 PM)
Minimum temperature yesterday: 63 °F (at 6:50 AM)
Average temperature yesterday: 76 °F

High & Low Weather Summary for the Past Weeks

 TemperatureHumidityPressure
High88 °F (Aug 24, 3:20 PM)94% (Aug 11, 10:50 PM)30.36 "Hg (Aug 11, 10:50 PM)
Low46 °F (Aug 11, 12:20 AM)24% (Aug 18, 5:50 PM)29.80 "Hg (Aug 18, 3:50 PM)
Average63 °F70%30.10 "Hg
* Reported Aug 10 3:20 AM — Aug 25 3:50 AM, Sundern (Sauerland), Weather by CustomWeather, © 2016

Note: Actual official high and low records may vary slightly from our data, if they occured in-between our weather recording intervals... More about our weather records

Advertising

Sundern (Sauerland) Weather History for the Previous 24 Hours

Scroll right to see more
 ConditionsComfort  
Time TempWeatherWind HumidityBarometerVisibility
3:50 AM
Thu, Aug 25
72 °FPassing clouds.5 mph57%30.12 "HgN/A
3:20 AM73 °FPassing clouds.6 mph57%30.12 "HgN/A
2:50 AM73 °FPassing clouds.7 mph57%30.12 "HgN/A
2:20 AM72 °FClear.5 mph61%30.12 "Hg10 mi
1:50 AM72 °FClear.3 mph61%30.12 "Hg10 mi
1:20 AM72 °FClear.3 mph61%30.12 "Hg10 mi
12:50 AM72 °FClear.7 mph61%30.15 "Hg10 mi
12:20 AM73 °FClear.3 mph57%30.15 "Hg10 mi
11:50 PM
Wed, Aug 24
73 °FClear.2 mph57%30.15 "Hg10 mi
11:20 PM73 °FPassing clouds.5 mph57%30.15 "HgN/A
10:50 PM75 °FClear.3 mph54%30.15 "Hg10 mi
10:20 PM75 °FClear.5 mph54%30.15 "Hg10 mi
9:50 PM77 °FClear.5 mph51%30.18 "Hg10 mi
9:20 PM77 °FSunny.5 mph51%30.15 "Hg10 mi
8:50 PM79 °FSunny.5 mph51%30.15 "Hg10 mi
8:20 PM81 °FSunny.6 mph45%30.15 "Hg10 mi
7:50 PM84 °FSunny.6 mph40%30.15 "Hg10 mi
7:20 PM86 °FSunny.7 mph38%30.15 "Hg10 mi
6:50 PM88 °FSunny.8 mph33%30.15 "Hg10 mi
6:20 PM88 °FPassing clouds.5 mph33%30.15 "HgN/A
5:50 PM88 °FPassing clouds.6 mph33%30.15 "HgN/A
5:20 PM88 °FPassing clouds.9 mph35%30.18 "HgN/A
4:50 PM88 °FPassing clouds.8 mph33%30.18 "HgN/A
4:20 PM88 °FPassing clouds.9 mph33%30.18 "HgN/A
3:50 PM88 °FPassing clouds.8 mph31%30.18 "HgN/A
3:20 PM88 °FPassing clouds.8 mph33%30.18 "HgN/A
2:50 PM86 °FPassing clouds.9 mph33%30.18 "HgN/A
2:20 PM86 °FPassing clouds.10 mph33%30.21 "HgN/A
1:50 PM86 °FPassing clouds.10 mph33%30.21 "HgN/A
1:20 PM84 °FPassing clouds.10 mph35%30.21 "HgN/A
12:50 PM84 °FPassing clouds.10 mph35%30.21 "HgN/A
12:20 PM82 °FPassing clouds.9 mph37%30.24 "HgN/A
11:50 AM82 °FSunny.13 mph37%30.24 "Hg10 mi
11:20 AM81 °FSunny.12 mph42%30.24 "Hg10 mi
10:50 AM79 °FPassing clouds.10 mph48%30.24 "HgN/A
10:20 AM79 °FPassing clouds.8 mph51%30.24 "HgN/A
9:50 AM77 °FPassing clouds.6 mph54%30.24 "HgN/A
9:20 AM73 °FPassing clouds.7 mph57%30.24 "HgN/A
8:50 AM72 °FSunny.8 mph61%30.24 "Hg10 mi
8:20 AM68 °FSunny.7 mph69%30.24 "Hg10 mi
7:50 AM66 °FSunny.7 mph73%30.24 "Hg10 mi
7:20 AM64 °FClear.7 mph73%30.24 "Hg10 mi
6:50 AM63 °FClear.6 mph77%30.24 "Hg10 mi
6:20 AM64 °FClear.7 mph73%30.24 "Hg10 mi
5:50 AM64 °FClear.7 mph73%30.24 "Hg10 mi
5:20 AM66 °FClear.10 mph73%30.24 "Hg10 mi
Weather by CustomWeather, © 2016

See weather overviewHow to use our weather pages